Regional Weather Roundup
Issued by NWS

Home | Current Version | Previous Version | Text Only | Print | Product List | Glossary Off
Versions: 1 2 3 4 5 6 7 8 9 10 11 12 13 14 15 16 17 18 19 20 21 22 23 24 25 26 27 28 29 30 31 32 33 34 35 36 37 38 39 40 41 42 43 44 45 46 47 48 49 50

000
ASUS43 KDTX 181001
RWRMI
MICHIGAN HOURLY REGIONAL WEATHER ROUNDUP
NATIONAL WEATHER SERVICE DETROIT/PONTIAC MI
600 AM EDT THU SEP 18 2014

NOTE: "FAIR" INDICATES FEW OR NO CLOUDS BELOW 12,000 FEET WITH NO
SIGNIFICANT WEATHER AND/OR OBSTRUCTION TO VISIBILITY.

MIZ047>049-052>055-059>063-066>070-074>076-081>083-181100-
SOUTHEAST LOWER MICHIGAN

CITY           SKY/WX    TMP DP  RH WIND       PRES   REMARKS
ADRIAN         CLEAR     46  44  93 N6        30.07R
ALMA           PTCLDY    46  45  95 CALM      30.10R
ANN ARBOR      CLEAR     50  44  80 N3        30.06R
BAD AXE        CLOUDY    48  48 100 CALM      30.08R
CARO           PTCLDY    49  47  95 N3        30.08R
DETROIT CITY   CLEAR     53  45  74 N5        30.07R
DETROIT        PTCLDY    50  45  83 NW3       30.06R
FLINT          CLEAR     45  43  93 CALM      30.08R FOG
GROSSE ILE     CLEAR     52  46  82 NW6       30.05R
HILLSDALE      CLEAR     42  42 100 CALM      30.07R
HOWELL         PTCLDY    46  45  96 CALM      30.07R

CITY           SKY/WX    TMP DP  RH WIND       PRES   REMARKS
JACKSON        CLEAR     40  39  97 CALM      30.08R
LAMBERTVILLE   CLEAR     45  41  87 CALM      30.06R FOG
LANSING        CLEAR     42  41  96 CALM      30.09R FOG
LAPEER         FAIR      40  39  97 CALM      30.08R FOG
MASON            N/A     41  40  97 CALM      30.08R
MONROE         CLEAR     45  43  93 CALM      30.04R FOG
MT. CLEMENS    CLEAR     49  46  88 NW5       30.05R
PONTIAC        PTCLDY    48  45  89 CALM      30.06R
PORT HOPE        N/A     55  50  83 NE15      30.06R
PORT HURON     CLEAR     46  46 100 NW6       30.05S
TRI CITIES     MOCLDY    50  47  89 N7        30.10R
TROY           CLEAR     53  48  83 N3        30.08R
SAGINAW HB     CLOUDY    52  52 100 CALM      30.08R
$$
MIZ043>046-050>051-056>058-064>065-071>073-077>080-181100-
SOUTHWEST LOWER MICHIGAN

CITY           SKY/WX    TMP DP  RH WIND       PRES   REMARKS
BATTLE CREEK   CLEAR     45  41  86 CALM      30.08R
BENTON HARBOR  CLEAR     40  40 100 CALM      30.07S
BIG RAPIDS     CLOUDY    48  48 100 CALM      30.09R
COLDWATER      FOG       43  42  97 MISG      30.08R VSB 1/4
FREMONT        CLOUDY    51  49  95 E6        30.08R
HOLLAND        PTCLDY    47  44  90 E3        30.09R
GRAND RAPIDS   PTCLDY    44  41  89 CALM      30.09R
IONIA          FAIR      45  44  97 CALM      30.08R
KALAMAZOO      CLEAR     43  40  89 N3        30.09R
LUDINGTON      CLOUDY    49  47  93 N3        30.11R
MARSHALL       FOG       39  39  99 W6        30.08R VSB 3/4 WCI  35
MOUNT PLEASANT CLOUDY    46  46  97 CALM      30.10R
MUSKEGON       PTCLDY    47  43  86 CALM      30.09R
SOUTH HAVEN    CLEAR     43  42  98 CALM      30.08R FOG
$$
MIZ016>042-181100-
NORTHERN LOWER MICHIGAN

CITY           SKY/WX    TMP DP  RH WIND       PRES   REMARKS
ALPENA         CLOUDY    46  41  82 NE8       30.13R
BEAVER ISLAND  CLOUDY    45  37  75 NE7       30.16R
BELLAIRE       CLOUDY    49  42  79 NE3       30.13R
CADILLAC       CLOUDY    47  47  99 CALM      30.10R
CHARLEVOIX     CLOUDY    48  42  81 NE7       30.16R
FRANKFORT      CLOUDY    52  45  75 NE5       30.12R
GAYLORD        CLOUDY    44  42  93 NE6       30.11R
GRAYLING       CLOUDY    49  48  95 NE6       30.12R
HARBOR SPRINGS CLOUDY    46  40  81 NE10      30.14R
HOUGHTON LAKE  CLOUDY    47  46  97 NE7       30.11R
MANISTEE       CLOUDY    48  43  81 CALM      30.12R
OSCODA         CLOUDY    49  47  91 NE8       30.10R
PELLSTON       CLOUDY    45  40  82 NE9       30.15R
ROGERS CITY    CLOUDY    46  40  82 NE7       30.15R
TRAVERSE CITY  CLOUDY    51  45  79 E8        30.11R
$$
MIZ007>008-015-181100-
EASTERN UPPER MICHIGAN

CITY           SKY/WX    TMP DP  RH WIND       PRES   REMARKS
KINROSS        CLOUDY    37  36  93 NE6       30.18R WCI  33
MACKINAC ISLAN CLOUDY    42  37  80 NE8       30.16R
NEWBERRY       MOCLDY    38  35  87 NE5       30.17R WCI  35
S. S. MARIE    MOCLDY    37  33  85 E3        30.18R
$$
MIZ004>006-011>014-085-181100-
CENTRAL UPPER MICHIGAN

CITY           SKY/WX    TMP DP  RH WIND       PRES   REMARKS
MANISTIQUE     CLOUDY    40  36  83 N3        30.16R
ESCANABA       PTCLDY    41  34  75 NE6       30.17S
MENOMINEE      CLOUDY    43  34  70 N7        30.15S
SAWYER-GWINN   CLOUDY    40  35  80 NW3       30.17R
$$
MIZ001>003-009>011-084-181100-
WESTERN UPPER MICHIGAN

CITY           SKY/WX    TMP DP  RH WIND       PRES   REMARKS
IRON MOUNTAIN  CLOUDY    41  33  73 N6        30.17R
HOUGHTON       CLOUDY    39  32  76 NE6       30.17S WCI  35
COPPER HARBOR    N/A     34  30  85 W7        30.20R WCI  28
IRONWOOD       CLOUDY    39  37  93 E7        30.14S WCI  34
$$

ABBREVIATIONS USED IN REMARKS
   TC - TEMPERATURE IN CELSIUS
  WCI - WIND CHILL INDEX
   HX - HEAT INDEX
  VSB - VISIBILITY




USA.gov is the U.S. government's official web portal to all federal, state and local government web resources and services.